TimeEDT,TemperatureF,Dew PointF,Humidity,Sea Level PressureIn,VisibilityMPH,Wind Direction,Wind SpeedMPH,Gust SpeedMPH,PrecipitationIn,Events,Conditions,WindDirDegrees,DateUTC
12:56 AM,37.0,21.9,54,29.84,10.0,NNW,8.1,-,N/A,,Overcast,340,2013-03-21 04:56:00
1:56 AM,34.0,21.0,59,29.83,10.0,North,5.8,-,N/A,,Scattered Clouds,350,2013-03-21 05:56:00
2:56 AM,33.1,23.0,66,29.80,10.0,NNW,6.9,-,N/A,,Clear,340,2013-03-21 06:56:00
3:56 AM,33.1,24.1,70,29.79,10.0,North,5.8,-,N/A,,Overcast,350,2013-03-21 07:56:00
4:56 AM,32.0,23.0,69,29.78,10.0,North,4.6,-,N/A,,Partly Cloudy,350,2013-03-21 08:56:00
5:56 AM,28.9,21.0,72,29.78,10.0,Calm,Calm,-,N/A,,Scattered Clouds,0,2013-03-21 09:56:00
6:56 AM,33.1,25.0,72,29.77,10.0,North,5.8,-,N/A,,Overcast,360,2013-03-21 10:56:00
7:56 AM,34.0,26.1,73,29.77,10.0,North,6.9,-,N/A,,Overcast,350,2013-03-21 11:56:00
8:56 AM,35.1,27.0,72,29.76,10.0,North,12.7,-,N/A,,Overcast,360,2013-03-21 12:56:00
9:56 AM,36.0,25.0,64,29.75,10.0,North,11.5,-,N/A,,Overcast,350,2013-03-21 13:56:00
10:43 AM,35.6,24.8,65,29.75,10.0,North,12.7,-,N/A,,Overcast,350,2013-03-21 14:43:00
10:56 AM,35.1,24.1,64,29.75,10.0,North,12.7,18.4,N/A,,Overcast,350,2013-03-21 14:56:00
11:56 AM,33.1,24.1,70,29.73,2.0,North,11.5,16.1,0.00,Snow,Light Snow,360,2013-03-21 15:56:00
12:07 PM,33.8,24.8,70,29.72,5.0,North,10.4,-,0.00,Snow,Light Snow,360,2013-03-21 16:07:00
12:18 PM,33.8,26.6,75,29.71,3.0,North,11.5,-,0.00,Snow,Light Snow,350,2013-03-21 16:18:00
12:27 PM,33.8,24.8,70,29.70,3.0,North,9.2,-,0.00,Snow,Light Snow,10,2013-03-21 16:27:00
12:35 PM,33.8,24.8,70,29.70,7.0,North,10.4,-,0.00,Snow,Light Snow,10,2013-03-21 16:35:00
12:56 PM,35.1,25.0,67,29.69,10.0,NNW,11.5,-,0.00,,Overcast,340,2013-03-21 16:56:00
1:56 PM,36.0,24.1,62,29.68,10.0,North,8.1,16.1,0.00,,Overcast,360,2013-03-21 17:56:00
2:56 PM,35.1,23.0,61,29.66,10.0,NNW,13.8,18.4,N/A,,Overcast,340,2013-03-21 18:56:00
3:56 PM,34.0,24.1,67,29.65,10.0,NNW,10.4,-,N/A,,Overcast,340,2013-03-21 19:56:00
4:19 PM,33.8,24.8,70,29.65,10.0,NW,11.5,-,N/A,,Overcast,310,2013-03-21 20:19:00
4:56 PM,33.1,25.0,72,29.65,9.0,NNW,11.5,-,0.00,,Overcast,330,2013-03-21 20:56:00
5:37 PM,32.0,26.6,80,29.65,5.0,NNW,10.4,-,0.00,,Haze,340,2013-03-21 21:37:00
5:42 PM,32.0,26.6,80,29.65,8.0,NNW,9.2,-,0.00,,Overcast,340,2013-03-21 21:42:00
5:56 PM,32.0,26.1,79,29.65,8.0,NNW,13.8,18.4,0.00,,Overcast,340,2013-03-21 21:56:00
6:17 PM,30.2,24.8,80,29.65,1.8,NNW,12.7,-,0.00,Snow,Light Snow,330,2013-03-21 22:17:00
6:33 PM,30.2,24.8,80,29.66,1.5,NNW,6.9,-,0.00,Snow,Light Snow,330,2013-03-21 22:33:00
6:56 PM,30.0,26.1,85,29.66,1.0,Variable,3.5,-,0.00,Snow,Light Snow,0,2013-03-21 22:56:00
7:06 PM,30.2,26.6,86,29.65,3.0,NNE,3.5,-,0.00,Snow,Light Snow,20,2013-03-21 23:06:00
7:15 PM,30.2,26.6,86,29.65,7.0,Calm,Calm,-,0.00,Snow,Light Snow,0,2013-03-21 23:15:00
7:56 PM,30.0,26.1,85,29.66,10.0,NW,4.6,-,0.00,,Overcast,310,2013-03-21 23:56:00
8:56 PM,28.9,26.1,89,29.68,10.0,Calm,Calm,-,N/A,,Mostly Cloudy,0,2013-03-22 00:56:00
9:56 PM,28.0,25.0,88,29.69,6.0,WNW,3.5,-,N/A,,Partly Cloudy,300,2013-03-22 01:56:00
10:56 PM,28.9,26.1,89,29.69,5.0,NW,3.5,-,N/A,,Overcast,310,2013-03-22 02:56:00
11:56 PM,30.9,24.1,76,29.70,10.0,NW,8.1,-,N/A,,Overcast,320,2013-03-22 03:56:00